Regional Weather Roundup
Issued by NWS Albany, NY

Home | Current Version | Previous Version | Text Only | Print | Product List | Glossary On
Versions: 1 2 3 4 5 6 7 8 9 10 11 12 13 14 15 16 17 18 19 20 21 22 23 24 25 26 27 28 29 30 31 32 33 34 35 36 37 38 39 40 41 42 43
000
ASUS41 KALY 021710
RWRALY

NEW YORK STATE HOURLY WEATHER ROUNDUP
NATIONAL WEATHER SERVICE ALBANY NY
100 PM EDT THU OCT 02 2014

NOTE: "FAIR" INDICATES FEW OR NO CLOUDS BELOW 12,000 FEET WITH NO
SIGNIFICANT WEATHER AND/OR NO OBSTRUCTIONS TO VISIBILITY.

NYZ032-033-038>043-046>054-057>066-NYZ062>081-021800-
EAST


CITY           SKY/WX    TMP DP  RH WIND       PRES   REMARKS
ALBANY         PTSUNNY   66  54  65 CALM      30.15F
GLENS FALLS    PTSUNNY   65  55  70 CALM      30.15F
POUGHKEEPSIE   CLOUDY    66  55  67 E7        30.13F
NEWBURGH       PTSUNNY   64  57  77 NE6       30.16F
MONTGOMERY       N/A     67  56  67 N6        30.14F
WHITE PLAINS   PTSUNNY   64  53  67 N6        30.13F
ISLIP          CLOUDY    62  55  77 N10       30.10F
NEW YORK CITY  PTSUNNY   66  55  67 NE10      30.12F
CENTRAL PARK   CLOUDY    66  53  63 VRB6      30.16F
$$

NYZ005>009-017-018-044>046-055-056-021800-
CENTRAL


CITY           SKY/WX    TMP DP  RH WIND       PRES   REMARKS
FULTON         PTSUNNY   69  57  65 MISG      30.12F
SYRACUSE       CLOUDY    70  56  61 S3        30.12S
ROME           MOSUNNY   69  57  65 SE7       30.14F
ELMIRA         MOSUNNY   68  57  68 VRB3      30.12F
BINGHAMTON     CLOUDY    63  54  72 S5        30.15F
MONTICELLO     CLOUDY    64  55  72 SE7       30.17F
$$

NYZ026>034-041>043-021800-
NORTH


CITY           SKY/WX    TMP DP  RH WIND       PRES   REMARKS
WATERTOWN      MOSUNNY   73  55  53 VRB3      30.11F
FORT DRUM      NOT AVBL
MASSENA        SUNNY     66  55  67 NE10      30.15F
SARANAC LAKE   MOSUNNY   66  50  56 CALM      30.13F
PLATTSBURGH    SUNNY     61  53  75 VRB3      30.16F
$$

NYZ001>004-010>016-019>021-021800-
WEST


CITY           SKY/WX    TMP DP  RH WIND       PRES   REMARKS
NIAGARA FALLS  MOSUNNY   72  58  61 SW12      30.06F
BUFFALO        MOSUNNY   71  58  63 SW9       30.07F
DUNKIRK        SUNNY     69  57  65 S10G22    30.07F
JAMESTOWN      MOSUNNY   63  55  77 SE9       30.11F
WELLSVILLE     PTSUNNY   62  53  72 SW7       30.15F
ROCHESTER      PTSUNNY   72  60  66 SE7       30.09F
PENN YAN       CLOUDY    67  58  72 SW7       30.12F
$$

             KEY
       WCI = WIND CHILL INDEX
       VSB = VISIBILITY
       HX  = HEAT INDEX
$$



USA.gov is the U.S. government's official web portal to all federal, state and local government web resources and services.